Probability
0 0 0 0 0 0 0 0 0 0 0 0 0 0 0 0 0 0 0 0 0 0 0 0 0 0 0 0 0 0 0 0 0 0 0 0 0 0 0 0 0 0 0 0
0 0 0 0 0 0 0 0 0 0 0 0 0 0 0 0 0 0 0 0 0 0 0 0 0 0 0 0 0 0 0 0 0 0 0 0 0 0 0 0 0 0 0 0
0 0 0 0 0 0 0 0 0 0 0 0 0 0 0 0 0 0 0 0 0 0 0 0 0 0 0 0 0 0 0 0 0 0 0 0 0 0 0 0 0 0 0 0
0 0 0 0 0 0 0 0 0 0 0 0 0 0 0 0 0 0 0 0 0 0 0 0 0 0 0 0 0 0 0 0 0 0 0 0 0 0 0 0 0 0 0 0
0 0 0 0 0 0 0 0 0 0 0 0 0 0 0 0 0 0 0 0 0 0 0 0 0 0 0 0 0 0 0 0 0 0 0 0 0 0 0 0 0 0 0 0
0 0 0 0 0 0 0 0 0 0 0 0 0 0 0 0 0 0 0 0 0 0 0 0 0 0 0 0 0 0 0 0 0 0 0 0 0 0 0 0 0 0 0 0
0 0 0 0 0 0 0 0 0 0 0 0 0 0 0 0 0 0 0 0 0 0 0 0 0 0 0 0 0 0 0 0 0 0 0 0 0 0 0 0 0 0 0 0
0 0 0 0 0 0 0 0 0 0 0 0 0 0 0 0 0 0 0 0 0 0 0 0 0 0 0 0 0 0 0 0 0 0 0 0 0 0 0 0 0 0 0 0
0 0 0 0 0 0 0 0 0 0 0 0 0 0 0 0 0 0 0 0 0 0 0 0 0 0 0 0 0 0 0 0 0 0 0 0 0 0 0 0 0 0 0 0
0 0 0 0 0 0 0 0 0 0 0 0 0 0 0 0 0 0 0 0 0 0 0 0 0 0 0 0 0 0 0 0 0 0 0 0 0 0 0 0 0 0 0 0
0 0 0 0 0 0 0 0 0 0 0 0 0 0 0 0 0 0 0 0 0 0 0 0 0 0 0 0 0 0 0 0 0 0 0 0 0 0 0 0 0 0 0 0
0 0 0 0 0 0 0 0 0 0 0 0 0 0 0 0 0 0 0 0 0 0 0 0 0 0 0 0 0 0 0 0 0 0 0 0 0 0 0 0 0 0 0 0
0 0 0 0 0 0 0 0 0 0 0 0 0 0 0 0 0 0 0 0 0 0 0 0 0 0 0 0 0 0 0 0 0 0 0 0 0 0 0 0 0 0 0 0
0 0 0 0 0 0 0 0 0 0 0 0 0 0 0 0 0 0 0 0 0 0 0 0 0 0 0 0 0 0 0 0 0 0 0 0 0 0 0 0 0 0 0 0
0 0 0 0 0 0 0 0 0 0 0 0 0 0 0 0 0 0 0 0 0 0 0 0 0 0 0 0 0 0 0 0 0 0 0 0 0 0 0 0 0 0 0 0
0 0 0 0 0 0 0 0 0 0 0 0 0 0 0 0 0 0 0 0 0 0 0 0 0 0 0 0 0 0 0 0 0 0 0 0 0 0 0 0 0 0 0 0
0 0 0 0 0 0 0 0 0 0 0 0 0 0 0 0 0 0 0 0 0 0 0 0 0 0 0 0 0 0 0 0 0 0 0 0 0 0 0 0 0 0 0 0
0 0 0 0 0 0 0 0 0 0 0 0 0 0 0 0 0 0 0 0 0 0 0 0 0 0 0 0 0 0 0 0 0 0 0 0 0 0 0 0 0 0 0 0
0 0 0 0 0 0 0 0 0 0 0 0 0 0 0 0 0 0 0 0 0 0 0 0 0 0 0 0 0 0 0 0 0 0 0 0 0 0 0 0 0 0 0 0
0 0 0 0 0 0 0 0 0 0 0 0 0 0 0 0 0 0 0 0 0 0 0 0 0 0 0 0 0 0 0 0 0 0 0 0 0 0 0 0 0 0 0 0
0 0 0 0 0 0 0 0 0 0 0 0 0 0 0 0 0 0 0 0 0 0 0 0 0 0 0 0 0 0 0 0 0 0 0 0 0 0 0 0 0 0 0 0
0 0 0 0 0 0 0 0 0 0 0 0 0 0 0 0 0 0 0 0 0 0 0 0 0 0 0 0 0 0 0 0 0 0 0 0 0 0 0 0 0 0 0 0
0 0 0 0 0 0 0 0 0 0 0 0 0 0 0 0 0 0 0 0 0 0 0 0 0 0 0 0 0 0 0 0 0 0 0 0 0 0 0 0 0 0 0 0
0 0 0 0 0 0 0 0 0 0 0 0 0 0 0 0 0 0 0 0 0 0 0 0 0 0 0 0 0 0 0 0 0 0 0 0 0 0 0 0 0 0 0 0
0 0 0 0 0 0 0 0 0 0 0 0 0 0 0 0 0 0 0 0 0 0 0 0 0 0 0 0 0 0 0 0 0 0 0 0 0 0 0 0 0 0 0 0
0 0 0 0 0 0 0 0 0 0 0 0 0 0 0 0 0 0 0 0 0 0 0 0 0 0 0 0 0 0 0 0 0 0 0 0 0 0 0 0 0 0 0 0
0 0 0 0 0 0 0 0 0 0 0 0 0 0 0 0 0 0 0 0 0 0 0 0 0 0 0 0 0 0 0 0 0 0 0 0 0 0 0 0 0 0 0 0
Height
5545 5543 5541 5540 5539 5537 5536 5534 5533 5533 5531 5530 5527 5525 5523 5521 5520 5519 5518 5517 5517 5516 5516 5515 5515 5514 5514 5513 5513 5513 5514 5514 5515 5516 5516 5516 5517 5517 5518 5519 5520 5521 5523 5524
5536 5534 5532 5530 5529 5528 5526 5525 5523 5521 5521 5519 5516 5514 5512 5510 5508 5507 5506 5505 5504 5503 5502 5502 5501 5500 5499 5499 5498 5498 5499 5499 5500 5500 5500 5500 5501 5501 5502 5502 5503 5504 5506 5506
5527 5525 5523 5522 5521 5519 5517 5515 5513 5511 5511 5508 5505 5503 5501 5499 5497 5495 5494 5493 5491 5490 5489 5488 5487 5486 5485 5485 5484 5484 5484 5484 5484 5484 5485 5485 5485 5485 5485 5486 5487 5487 5488 5489
5518 5517 5514 5516 5512 5510 5508 5506 5504 5501 5499 5497 5495 5492 5490 5488 5486 5484 5483 5481 5479 5477 5476 5474 5473 5472 5471 5471 5470 5469 5469 5469 5469 5469 5469 5469 5469 5469 5469 5469 5469 5470 5470 5471
5510 5507 5505 5505 5504 5501 5498 5496 5494 5491 5489 5487 5484 5482 5480 5477 5475 5473 5471 5468 5466 5464 5463 5461 5460 5459 5457 5456 5455 5455 5454 5454 5454 5453 5453 5453 5453 5452 5452 5452 5452 5452 5452 5453
5501 5498 5497 5498 5495 5491 5489 5487 5485 5481 5479 5476 5473 5471 5470 5466 5463 5460 5458 5456 5454 5452 5450 5448 5447 5445 5444 5442 5441 5440 5440 5439 5438 5438 5438 5437 5437 5436 5435 5435 5435 5435 5435 5435
5494 5491 5489 5488 5485 5482 5481 5479 5475 5471 5468 5465 5462 5460 5457 5454 5451 5448 5446 5443 5441 5439 5438 5436 5434 5432 5430 5429 5427 5426 5425 5424 5423 5422 5421 5421 5420 5420 5419 5418 5417 5417 5417 5417
5486 5483 5483 5479 5476 5474 5471 5467 5464 5461 5458 5455 5452 5449 5446 5443 5439 5436 5433 5431 5429 5427 5425 5423 5421 5419 5417 5416 5414 5412 5410 5409 5408 5407 5405 5404 5404 5403 5402 5401 5400 5399 5399 5399
5479 5478 5474 5470 5467 5464 5460 5457 5454 5450 5447 5444 5441 5438 5434 5431 5427 5424 5421 5418 5416 5414 5412 5410 5408 5406 5404 5402 5400 5398 5396 5395 5393 5392 5390 5388 5387 5386 5385 5384 5383 5383 5382 5382
5470 5468 5465 5461 5457 5454 5450 5447 5443 5440 5436 5432 5429 5426 5422 5419 5415 5412 5409 5406 5403 5401 5399 5397 5394 5392 5390 5388 5386 5384 5382 5381 5379 5377 5375 5374 5372 5371 5369 5368 5367 5366 5366 5366
5461 5459 5455 5452 5448 5444 5440 5436 5432 5429 5425 5421 5418 5414 5410 5407 5403 5400 5397 5394 5391 5388 5386 5384 5381 5379 5376 5374 5372 5370 5368 5367 5365 5363 5360 5359 5358 5356 5354 5353 5352 5351 5351 5351
5452 5449 5445 5442 5438 5434 5430 5426 5422 5418 5414 5410 5406 5403 5399 5395 5391 5388 5385 5382 5379 5376 5374 5371 5368 5365 5363 5360 5358 5356 5354 5353 5351 5349 5347 5345 5344 5342 5340 5339 5338 5337 5336 5336
5442 5438 5434 5431 5427 5423 5419 5415 5411 5407 5404 5400 5396 5392 5388 5384 5380 5376 5373 5370 5367 5364 5361 5358 5355 5352 5349 5347 5344 5342 5340 5339 5337 5335 5334 5332 5330 5329 5328 5327 5325 5324 5323 5323
5431 5428 5424 5421 5417 5413 5409 5405 5401 5397 5393 5389 5385 5380 5376 5372 5368 5365 5361 5358 5355 5352 5349 5346 5343 5340 5336 5334 5331 5329 5327 5325 5324 5322 5320 5319 5317 5315 5314 5313 5313 5312 5311 5311
5422 5418 5414 5410 5407 5403 5399 5395 5391 5386 5382 5378 5374 5370 5365 5361 5357 5354 5350 5346 5343 5340 5337 5334 5331 5328 5325 5322 5319 5317 5315 5313 5311 5310 5308 5306 5304 5303 5302 5301 5300 5300 5300 5299
5412 5408 5405 5401 5397 5393 5389 5385 5381 5376 5372 5368 5363 5359 5355 5351 5347 5343 5339 5335 5332 5328 5325 5322 5319 5316 5313 5310 5308 5305 5303 5301 5300 5298 5296 5294 5292 5291 5290 5289 5288 5288 5288 5288
5403 5399 5396 5392 5388 5384 5380 5375 5371 5366 5362 5358 5353 5349 5345 5341 5336 5332 5328 5324 5321 5317 5314 5311 5309 5306 5303 5300 5298 5295 5293 5291 5289 5287 5285 5283 5281 5279 5278 5278 5277 5277 5277 5276
5394 5390 5386 5382 5378 5374 5370 5366 5361 5356 5352 5348 5343 5339 5335 5331 5326 5322 5318 5314 5310 5307 5304 5301 5298 5296 5293 5291 5288 5286 5283 5281 5278 5276 5274 5272 5270 5269 5268 5267 5267 5266 5266 5265
5385 5381 5377 5373 5369 5365 5360 5356 5352 5347 5343 5338 5334 5330 5325 5321 5317 5312 5308 5304 5301 5298 5295 5292 5289 5286 5284 5282 5279 5277 5274 5272 5269 5267 5264 5262 5260 5259 5258 5257 5257 5256 5256 5255
5377 5373 5368 5364 5360 5356 5352 5347 5343 5338 5334 5330 5325 5321 5316 5312 5308 5304 5299 5295 5292 5288 5285 5282 5280 5277 5275 5273 5270 5268 5265 5263 5260 5257 5255 5253 5251 5249 5248 5248 5247 5246 5246 5245
5369 5364 5360 5356 5352 5347 5343 5339 5335 5330 5326 5322 5317 5313 5308 5304 5300 5295 5291 5287 5283 5280 5277 5274 5271 5269 5266 5264 5261 5259 5256 5253 5251 5248 5246 5244 5242 5241 5239 5238 5237 5236 5236 5236
5360 5356 5352 5348 5344 5339 5335 5331 5327 5322 5318 5313 5309 5305 5301 5296 5292 5288 5284 5280 5276 5272 5269 5266 5263 5261 5258 5255 5253 5250 5248 5245 5242 5240 5238 5236 5234 5232 5231 5230 5228 5228 5227 5227
5352 5348 5344 5340 5336 5332 5327 5323 5319 5314 5310 5306 5302 5298 5294 5289 5285 5281 5277 5273 5269 5265 5262 5259 5256 5253 5250 5248 5245 5242 5240 5237 5235 5232 5230 5228 5226 5225 5223 5222 5221 5220 5219 5219
5344 5340 5336 5332 5328 5324 5319 5315 5311 5306 5302 5298 5294 5290 5286 5282 5278 5274 5270 5266 5262 5259 5255 5252 5249 5246 5243 5240 5238 5235 5233 5230 5228 5225 5223 5221 5219 5218 5216 5215 5214 5213 5212 5212
5335 5331 5328 5324 5320 5316 5312 5307 5303 5299 5295 5291 5287 5283 5279 5275 5272 5267 5263 5259 5256 5252 5249 5245 5242 5240 5237 5234 5231 5228 5226 5223 5221 5219 5216 5214 5212 5211 5209 5208 5207 5207 5206 5205
5327 5323 5319 5316 5312 5308 5304 5300 5296 5291 5287 5283 5279 5275 5271 5268 5264 5260 5257 5253 5249 5246 5242 5239 5236 5233 5230 5227 5224 5222 5219 5217 5214 5212 5210 5208 5206 5204 5203 5202 5200 5200 5199 5199
5319 5315 5311 5308 5304 5300 5296 5292 5288 5284 5280 5276 5272 5268 5264 5260 5257 5253 5250 5246 5243 5239 5236 5233 5230 5227 5224 5221 5218 5215 5213 5210 5208 5206 5204 5202 5200 5198 5197 5195 5194 5193 5193 5192
Wind_Speed
28 29 29 29 30 30 30 31 33 33 33 33 35 36 38 39 39 40 40 41 42 43 43 44 44 45 45 46 47 48 49 49 50 50 51 52 54 56 57 58 58 59 59 60
28 28 29 29 29 30 30 31 32 33 33 32 34 36 37 38 38 38 39 40 41 42 43 44 44 45 46 46 47 48 49 50 50 51 51 52 52 54 55 56 57 58 59 59
27 27 29 30 30 31 32 32 33 34 34 33 34 35 36 36 36 36 37 38 39 40 41 42 44 44 45 46 47 48 49 50 51 52 52 52 53 53 54 56 57 58 59 60
28 28 30 29 29 30 31 32 32 33 34 34 34 35 35 35 36 36 37 38 39 40 41 41 42 43 44 45 46 46 46 47 49 50 51 51 52 53 55 56 57 58 59 59
28 29 30 28 28 28 29 30 30 32 33 34 34 35 35 36 37 38 38 39 39 40 40 40 41 42 43 44 45 45 46 46 47 49 50 50 51 52 54 55 56 57 58 58
27 29 29 28 28 28 30 30 30 31 32 33 34 36 36 37 38 39 39 39 39 38 38 39 40 40 41 42 43 44 45 46 47 48 49 50 50 51 52 53 55 56 56 57
27 28 29 28 29 30 31 31 31 32 32 33 34 36 36 37 38 39 39 39 39 38 38 38 38 39 40 41 42 43 44 45 46 47 48 49 50 50 52 53 54 54 55 55
28 29 29 29 30 31 32 32 33 33 33 34 34 35 35 36 37 38 39 39 39 39 39 40 40 41 41 42 42 43 44 44 45 46 48 48 49 50 51 52 52 52 53 53
29 29 30 31 31 31 32 33 33 34 35 36 36 36 36 36 37 38 38 39 39 39 40 40 41 41 42 43 43 43 43 43 43 44 46 46 47 48 49 49 50 51 52 52
30 30 30 31 32 32 33 34 34 35 36 36 36 36 37 37 37 37 37 37 37 38 39 40 40 41 41 42 42 42 42 42 42 43 44 45 45 45 46 47 48 49 49 49
30 31 32 32 33 34 34 34 35 35 36 36 36 36 36 36 36 37 37 37 37 37 38 39 40 40 41 41 41 41 41 41 41 41 42 42 43 43 43 44 45 45 45 46
31 32 33 34 34 35 35 35 35 35 35 36 36 36 36 36 36 36 36 37 38 38 39 38 38 39 40 40 41 41 41 41 40 40 40 41 41 41 41 42 43 43 42 42
31 32 33 34 34 34 35 35 35 35 35 35 36 36 37 36 36 36 36 36 37 37 37 37 37 38 38 39 39 39 40 39 39 39 39 40 40 40 40 41 40 40 39 39
32 32 33 33 33 33 34 34 35 35 36 36 36 36 36 36 36 36 36 35 35 35 35 35 36 36 37 37 37 37 36 36 37 38 38 39 39 39 38 38 37 37 37 38
31 32 32 32 32 33 33 34 35 35 36 36 36 35 35 35 35 35 35 35 34 34 34 35 35 35 35 35 34 34 34 35 35 36 36 37 37 37 37 36 36 36 36 36
31 31 31 32 32 33 33 33 34 34 34 35 35 34 34 34 34 34 34 34 34 34 34 34 34 34 33 32 32 31 32 33 34 34 34 35 35 35 35 35 34 34 34 34
30 30 31 31 32 32 32 33 33 33 33 33 33 34 34 33 33 32 33 33 33 33 32 32 32 31 31 30 30 29 30 31 32 32 33 33 33 33 33 33 33 33 33 34
29 29 30 30 31 31 32 32 32 32 32 32 32 32 32 32 32 31 32 32 31 31 31 30 30 30 29 29 28 28 29 29 30 30 31 31 31 31 31 31 31 31 31 32
30 30 31 31 31 31 32 31 31 31 31 31 31 31 31 31 31 30 30 30 30 29 29 29 28 28 28 28 28 28 29 29 30 30 30 30 30 30 30 30 30 30 30 30
30 31 31 31 31 30 30 30 30 30 29 29 29 29 29 30 30 29 29 29 28 28 27 27 27 27 27 28 28 29 29 29 30 30 29 29 29 28 29 29 29 29 29 29
30 31 30 30 29 29 29 29 29 29 29 29 28 28 29 29 29 28 27 27 27 26 26 25 25 25 26 26 27 27 28 28 28 28 27 27 26 26 27 27 27 27 27 27
30 30 29 28 28 28 29 29 29 28 28 28 28 27 27 27 27 27 26 26 25 25 25 24 24 25 25 25 25 26 26 26 26 26 25 24 24 24 24 24 24 24 25 25
29 29 28 28 28 28 29 29 28 28 28 27 27 27 26 26 26 26 26 26 25 25 24 24 24 24 25 25 25 25 24 24 24 24 23 23 22 23 23 22 22 22 22 23
29 28 28 28 28 28 29 29 28 28 27 27 27 27 26 26 26 26 26 25 25 24 24 24 24 24 24 24 24 23 23 22 22 22 22 21 21 21 21 21 21 21 21 21
28 28 28 28 28 28 28 28 28 28 28 27 27 27 27 26 26 26 26 25 25 24 23 23 23 23 23 23 23 22 22 22 21 20 20 20 20 20 20 20 20 20 20 20
28 28 27 27 27 27 27 28 28 27 27 27 27 27 27 26 26 25 25 25 25 24 23 23 22 22 22 22 22 22 21 21 20 20 19 19 18 18 18 18 19 19 19 19
27 27 27 27 28 28 27 27 27 27 27 27 27 26 26 26 25 25 25 24 24 24 23 22 22 21 21 21 21 20 20 20 19 19 19 18 17 17 17 17 17 18 18 18
Wind_Direction
283 281 279 278 276 275 275 276 276 276 276 277 277 276 276 276 275 274 272 271 270 269 269 268 267 266 265 266 265 263 261 261 262 262 262 262 261 260 260 260 260 260 260 260
285 283 280 278 276 276 276 277 278 279 279 279 278 277 277 276 275 274 274 273 272 271 270 269 268 267 267 266 266 264 263 262 263 262 263 263 262 262 261 261 261 261 261 262
285 284 282 279 280 280 280 280 281 281 281 280 279 279 278 276 274 273 273 274 274 273 272 271 270 269 268 267 267 266 264 264 263 262 263 264 263 263 263 263 263 263 263 263
287 286 283 285 284 283 284 284 284 283 283 282 280 279 278 277 276 275 275 275 276 275 274 273 271 270 269 269 267 266 265 265 264 263 263 264 264 264 264 264 264 263 264 264
290 288 286 286 287 288 286 285 284 284 284 283 282 280 279 279 279 277 276 276 276 275 274 273 273 272 272 271 270 268 267 266 265 264 264 264 264 264 265 265 265 265 265 265
290 290 289 290 290 289 289 287 287 287 286 286 284 282 281 280 281 280 279 277 276 275 275 275 275 274 274 273 273 271 270 268 267 266 265 265 266 266 266 266 266 266 265 265
291 291 291 293 292 291 290 291 290 290 289 288 287 286 284 283 283 282 280 278 277 276 276 275 275 276 276 276 276 274 272 270 269 267 266 267 267 268 268 267 268 267 266 265
293 292 294 296 295 293 292 291 291 291 291 290 290 289 288 286 285 283 281 279 278 276 275 274 275 277 277 278 277 276 274 272 271 269 268 268 268 269 269 268 268 268 267 266
292 293 293 294 295 294 294 293 292 292 292 291 292 291 290 288 287 285 283 280 278 277 276 276 275 277 277 278 277 277 276 274 273 272 271 271 271 270 270 269 269 269 268 266
291 292 293 294 294 294 293 293 293 292 293 293 294 293 291 290 288 286 284 283 280 279 279 278 278 278 278 278 277 277 276 275 275 274 273 272 273 272 271 270 270 269 269 266
290 291 292 293 293 294 295 295 295 294 294 295 295 294 293 292 290 288 286 284 283 282 282 281 280 279 279 279 277 276 275 275 276 276 275 273 273 274 273 272 271 271 269 267
294 294 293 294 294 295 295 295 296 296 296 296 295 295 294 293 291 290 287 285 284 284 284 283 283 283 281 279 278 276 275 274 276 276 274 273 273 273 273 272 271 270 269 266
294 294 294 295 295 296 296 296 296 297 297 296 296 296 295 294 291 290 290 289 287 286 286 285 285 284 283 282 280 277 276 274 275 275 274 274 274 274 273 271 270 269 267 266
295 295 295 295 295 296 296 298 298 298 298 298 297 297 296 296 294 292 291 291 289 288 288 288 287 286 286 284 282 279 277 276 275 275 275 274 274 274 273 271 269 268 267 266
297 297 297 297 297 298 299 300 300 300 299 298 298 298 298 297 296 294 292 291 290 290 289 289 289 289 288 287 284 281 278 277 277 277 276 276 275 274 273 272 270 268 266 266
299 298 298 298 299 300 301 301 301 301 300 299 298 298 298 298 297 295 293 292 291 291 290 290 290 289 289 288 285 282 281 279 279 278 278 277 276 274 273 272 270 268 267 267
301 300 299 300 301 302 302 302 302 302 301 300 299 299 299 299 298 296 294 293 293 292 292 291 290 289 289 287 286 285 284 283 282 281 281 280 278 275 273 271 270 268 268 267
303 302 303 303 303 303 303 304 304 304 303 303 302 301 300 300 299 297 296 295 294 294 293 292 290 289 288 287 287 287 286 286 286 284 283 281 280 277 274 272 270 269 268 267
305 305 305 305 304 305 305 306 305 305 304 304 303 303 303 303 302 300 299 297 296 295 294 292 290 289 287 287 288 288 288 287 287 286 285 283 280 277 275 273 272 271 270 268
306 306 306 306 306 306 306 307 307 307 306 306 306 306 306 306 305 303 302 300 298 297 296 295 292 290 289 288 288 288 288 288 288 287 285 283 280 278 276 274 273 271 270 269
307 307 306 306 306 307 308 308 308 308 308 307 308 308 307 308 307 306 305 303 301 299 298 296 294 293 291 291 290 290 289 288 288 287 285 282 280 278 277 276 274 271 270 269
308 307 307 307 308 308 309 310 310 310 309 309 309 310 310 310 309 308 308 307 305 302 300 297 296 295 294 294 293 293 292 291 289 288 285 282 279 278 277 276 274 271 269 269
308 308 308 308 309 310 311 311 311 311 310 310 310 310 310 311 311 311 310 309 307 305 303 300 298 297 297 297 295 295 294 293 291 290 287 283 280 279 277 275 273 271 270 268
308 308 309 309 309 310 311 311 311 311 311 310 309 309 310 310 311 312 312 311 309 307 306 304 301 300 300 299 298 296 295 294 293 292 289 284 282 280 278 275 272 271 270 269
309 309 309 310 310 311 311 312 312 312 312 311 310 309 309 309 310 311 312 312 311 309 308 306 304 303 302 301 299 297 296 294 293 293 291 289 285 282 279 275 272 271 270 269
311 311 311 311 311 312 312 313 313 312 312 311 310 308 308 308 309 310 311 312 311 310 308 306 305 304 304 303 302 299 297 296 294 293 292 291 288 285 282 278 275 272 270 269
313 313 312 312 312 312 312 313 313 313 312 312 311 309 308 307 308 309 310 311 311 310 308 307 306 305 305 305 304 302 300 297 295 293 293 291 290 287 283 280 278 275 271 268